Temperature
16 16 16 16 17 17 17 17 17 17 17 17 17 17 17 17 17 17 16 16 16 16 16 16 16 16 15 15 15 15 15 15 15 15 15 15 15 15 15 15 15 15 15
16 16 16 16 16 17 17 17 17 17 17 17 17 17 17 16 16 16 16 16 16 16 16 16 16 16 15 15 15 15 15 15 15 15 15 15 15 15 15 15 15 15 15
16 16 16 16 16 17 17 17 17 17 17 16 16 16 16 16 16 16 16 16 16 16 16 16 15 15 15 15 15 15 15 15 15 15 15 15 15 15 14 14 14 15 15
16 16 16 16 16 16 16 16 16 16 16 16 16 16 16 16 16 16 16 16 16 16 16 16 15 15 15 15 15 15 15 15 15 15 15 15 15 15 14 14 14 15 15
15 16 16 16 16 16 16 16 16 16 16 16 16 16 16 16 16 16 16 16 16 16 15 15 15 15 15 15 15 15 15 15 15 15 15 15 15 15 14 14 14 15 15
15 15 16 16 16 16 16 16 16 16 16 16 16 16 16 16 15 15 15 15 15 15 15 15 15 15 15 15 15 15 15 15 15 15 15 15 15 14 14 14 14 15 15
15 15 15 15 16 16 16 16 16 16 16 16 15 15 15 15 15 15 15 15 15 15 15 15 15 15 15 15 15 15 15 15 15 14 14 14 14 14 14 14 14 14 14
15 15 15 15 15 15 15 15 15 15 15 15 15 15 15 15 15 15 15 15 15 15 15 15 15 15 15 15 15 15 15 14 14 14 14 14 14 14 14 14 14 14 14
15 15 15 15 15 15 15 15 15 15 15 15 15 15 15 15 15 15 15 15 15 15 14 14 15 15 15 15 14 14 14 14 14 14 14 14 14 14 14 14 14 14 14
14 14 14 15 15 15 15 15 15 15 15 15 15 15 15 15 15 14 14 14 14 14 14 14 14 14 14 14 14 14 14 14 14 14 14 14 14 14 14 14 14 14 14
14 14 14 14 14 14 14 14 14 14 14 14 14 14 14 14 14 14 14 14 14 14 14 14 14 14 14 14 14 14 14 13 13 14 14 14 14 14 14 14 14 14 14
14 14 14 14 14 14 14 14 14 14 14 14 14 14 14 14 14 14 14 14 14 14 14 14 14 14 14 14 14 13 13 13 13 13 13 13 14 14 14 14 14 14 14
13 13 14 14 14 14 14 14 14 14 14 14 14 14 14 14 14 14 14 14 14 14 14 13 13 14 14 13 13 13 13 13 13 13 13 13 13 13 13 13 14 14 14
13 13 13 13 13 13 13 13 13 13 13 14 14 14 14 14 14 14 14 13 13 13 13 13 13 13 13 13 13 13 13 13 13 13 13 13 13 13 13 13 13 13 13
13 13 13 13 13 13 13 13 13 13 13 13 13 13 13 13 13 13 13 13 13 13 13 13 13 13 13 13 13 13 13 12 13 12 12 12 13 13 13 13 13 13 13
12 12 12 13 13 13 13 13 13 13 13 12 12 13 13 13 13 13 13 13 12 12 12 12 12 13 13 12 12 12 12 12 12 12 12 12 12 12 12 12 12 12 12
12 12 12 12 12 12 12 12 12 12 12 12 12 12 12 12 12 12 12 12 12 12 12 12 12 12 12 12 12 12 12 12 12 12 12 12 12 12 12 12 12 12 12
11 12 12 12 12 12 12 12 12 12 12 12 12 12 11 11 11 11 11 11 12 12 11 12 12 12 12 12 12 12 11 11 11 11 11 11 12 12 12 12 12 12 12
11 11 11 11 11 12 12 12 11 11 11 11 11 11 11 11 11 11 11 11 11 11 11 11 11 11 11 11 11 11 11 11 11 11 11 11 11 11 11 11 11 11 11
11 11 11 11 11 11 11 11 11 11 11 11 10 10 10 10 10 10 10 10 10 10 11 11 11 11 11 11 11 11 10 10 10 11 11 11 11 11 11 10 11 11 10
11 11 11 11 11 11 11 11 11 11 10 10 10 10 10 10 10 10 10 10 10 10 10 10 10 10 10 10 10 10 10 10 10 10 10 10 10 10 10 10 10 10 10
11 10 10 10 10 10 10 10 10 10 10 10 10 10 9 9 9 9 9 9 10 9 10 10 10 10 10 10 10 9 10 10 10 10 10 10 9 9 9 9 9 9 9
10 10 10 10 10 10 10 10 10 10 10 10 9 9 9 9 9 9 9 9 9 9 9 9 9 9 9 9 9 9 9 9 9 9 9 9 9 9 9 9 8 8 8
10 10 10 10 10 10 9 9 9 9 9 9 9 9 9 9 9 9 8 8 8 8 8 8 8 8 8 8 8 8 8 8 8 8 8 8 8 8 8 8 8 8 7
10 10 9 9 9 9 9 9 9 9 9 9 9 9 9 8 8 8 8 8 8 8 8 8 8 8 8 8 8 7 7 7 7 7 7 8 7 7 7 7 7 7 7
9 9 9 9 9 9 9 9 9 9 9 8 8 8 8 8 8 8 8 8 8 8 8 8 8 8 7 7 7 7 7 6 6 6 6 6 6 6 6 6 6 6 6
Wind_Speed
3 4 9 10 11 11 11 11 10 10 9 9 9 8 8 8 7 7 6 7 6 6 6 6 6 6 6 6 6 5 5 5 6 6 6 6 6 6 7 8 7 7 8
7 8 10 11 11 11 11 11 10 9 9 8 8 7 7 6 6 5 5 5 5 5 5 5 5 5 5 5 5 4 4 4 4 4 4 4 4 4 5 6 6 6 6
9 9 10 11 11 11 11 10 10 9 9 8 7 7 6 6 5 5 5 4 4 4 4 4 4 4 4 3 3 3 2 2 2 2 2 2 1 2 4 4 5 5 5
10 10 10 11 11 11 11 10 10 9 8 8 7 6 5 5 4 4 4 4 4 3 3 3 3 3 3 2 2 1 1 1 1 1 0 0 1 2 3 3 3 3 3
10 10 10 11 11 10 10 10 9 8 8 7 6 5 5 4 4 4 3 3 3 3 3 2 2 2 2 2 2 2 2 3 2 2 1 1 2 3 3 3 3 3 3
8 9 10 11 10 10 9 9 8 8 7 6 6 5 4 3 3 3 3 3 3 2 2 2 2 2 2 3 3 3 4 3 2 2 2 2 4 5 4 4 4 4 4
7 9 10 11 10 9 9 8 8 7 7 6 5 5 4 3 3 3 3 3 2 2 2 2 3 3 4 4 4 5 5 4 3 3 4 4 5 6 6 6 6 6 6
9 9 10 10 10 9 9 8 7 6 6 5 5 5 4 4 4 4 3 3 2 2 2 3 3 4 5 5 6 6 6 5 4 4 5 6 7 8 8 8 7 7 7
9 9 9 9 9 8 8 8 8 7 6 6 5 5 5 5 5 5 4 4 3 3 3 3 4 5 6 6 7 7 7 7 6 6 6 7 8 9 10 9 9 9 9
8 7 7 8 8 7 7 7 7 7 6 6 5 5 5 5 5 5 5 5 4 4 4 4 5 5 6 7 7 8 8 7 6 7 7 8 8 9 10 10 10 10 10
7 5 6 6 7 7 6 7 7 7 7 7 6 6 6 6 5 5 6 6 5 5 5 5 5 6 6 7 8 8 7 5 6 6 7 8 9 10 11 11 11 10 11
5 4 4 5 6 6 6 7 7 7 7 7 7 6 6 6 5 5 6 6 6 6 6 7 7 7 6 6 7 8 6 6 5 6 7 9 9 10 11 11 11 11 12
4 4 4 4 5 6 5 6 6 6 7 7 7 6 6 6 6 6 5 6 6 6 6 7 7 7 6 6 6 6 6 6 5 6 8 9 9 10 10 10 10 11 12
4 4 3 4 4 5 6 5 5 5 5 6 7 7 6 5 5 5 4 5 5 5 5 5 5 6 6 6 6 6 6 5 5 6 7 8 8 9 10 10 10 11 11
4 3 3 3 4 4 5 4 5 4 5 6 7 8 7 5 3 4 4 5 5 5 4 4 4 4 5 5 6 5 5 5 6 5 6 7 7 8 9 9 9 8 9
4 3 2 3 3 4 4 3 3 4 5 7 7 8 8 6 5 4 4 4 5 5 5 4 4 4 3 4 4 5 5 5 5 4 5 5 5 6 7 8 8 8 8
3 3 2 2 3 4 3 3 4 4 5 6 6 8 9 8 6 5 3 3 5 6 6 4 5 4 3 4 5 5 4 4 4 3 3 3 4 5 6 6 6 6 7
4 3 3 3 3 3 3 3 3 5 5 5 6 7 8 8 7 6 3 3 7 6 5 3 3 3 4 4 4 4 3 3 3 3 2 2 3 3 4 4 4 5 6
4 3 3 3 2 2 2 3 4 5 5 5 6 6 7 7 7 6 4 5 6 5 4 3 3 2 3 5 4 3 3 2 2 3 3 3 3 3 3 4 4 5 6
4 3 3 2 2 2 2 2 3 3 3 5 5 5 6 6 7 6 5 6 6 3 3 4 4 3 2 4 4 3 2 2 2 2 3 3 4 5 5 5 5 5 7
3 3 2 2 1 2 2 1 1 1 2 2 3 5 6 6 6 6 4 4 4 3 4 4 3 3 3 3 3 3 3 2 2 2 3 3 5 6 7 7 6 6 6
3 2 2 2 1 0 1 1 1 1 0 0 2 3 5 6 6 5 4 3 3 3 4 4 4 2 3 3 2 2 3 3 3 3 3 4 5 6 6 8 8 8 7
3 4 3 2 1 1 0 1 1 2 2 2 2 2 2 4 4 5 4 3 3 2 2 3 3 3 2 3 2 1 1 2 3 3 3 4 5 5 5 6 8 9 9
5 4 3 2 2 1 1 1 2 2 1 2 1 1 2 3 3 4 4 3 3 2 2 2 3 2 1 2 2 2 1 0 1 3 3 3 5 5 5 5 6 8 10
4 3 3 2 2 1 1 2 2 2 2 1 1 1 1 2 2 3 3 3 2 2 2 2 2 2 1 1 1 2 2 2 1 1 3 3 3 3 4 4 5 7 10
3 3 2 2 2 2 2 2 3 3 3 2 2 1 1 1 1 2 2 2 2 1 1 1 2 2 2 2 1 1 1 1 1 1 2 3 3 2 3 3 4 6 9
Wind_Direction
150 135 130 123 118 113 108 108 104 100 97 96 95 93 91 88 87 86 84 81 83 80 75 71 74 74 73 75 80 82 81 81 79 76 69 66 74 79 78 74 75 73 80
143 128 125 122 118 114 109 107 104 102 99 96 94 93 92 89 86 84 84 79 78 77 76 71 69 69 71 73 74 79 85 86 88 82 72 65 68 82 87 84 88 83 81
127 121 117 119 116 113 109 106 104 102 100 97 95 92 89 87 82 78 80 74 71 70 70 70 66 59 60 69 71 68 78 85 105 95 74 72 90 115 111 101 101 91 90
122 118 116 114 115 111 107 104 104 100 97 95 93 90 84 80 76 75 74 66 60 58 57 57 54 47 43 44 50 38 3 327 307 276 216 230 199 180 154 135 126 118 112
115 115 115 113 112 112 108 105 103 100 97 93 89 85 80 76 73 74 69 63 54 48 42 41 38 27 12 359 340 321 319 313 307 277 224 249 221 214 199 180 168 162 156
110 112 115 111 107 107 109 109 106 102 97 91 88 84 75 68 70 70 62 58 52 46 39 24 4 334 321 316 311 308 312 304 302 268 243 249 226 224 215 204 194 190 186
110 102 108 109 107 104 101 106 107 103 98 91 84 79 72 61 52 56 59 51 42 27 8 350 332 323 313 306 299 301 300 289 277 266 250 247 235 235 230 218 207 203 200
110 94 96 101 100 100 100 95 97 100 97 89 79 70 62 57 53 55 42 29 11 352 338 328 321 316 314 308 303 300 291 277 268 274 265 253 246 245 239 228 219 214 211
94 90 81 84 88 91 94 91 84 87 87 81 72 62 54 47 43 44 34 20 7 353 335 326 322 319 316 315 313 312 298 276 259 260 266 258 257 253 247 236 225 224 220
79 78 75 71 72 75 83 83 78 74 73 70 64 57 49 42 36 34 27 16 9 359 344 331 322 320 316 313 312 311 308 290 263 259 258 257 259 256 253 245 235 230 228
68 63 66 65 63 66 79 74 71 70 65 65 60 56 50 36 29 27 21 19 12 2 348 337 328 323 319 313 312 312 311 299 276 260 258 258 262 263 258 250 244 236 233
73 62 62 64 60 60 67 64 66 66 61 57 54 51 44 38 33 30 25 22 12 3 354 344 338 328 319 312 311 312 306 298 282 264 265 262 266 268 265 258 250 243 239
97 72 54 62 59 56 52 60 60 58 55 49 45 46 44 38 29 24 21 13 7 6 0 351 348 337 321 311 308 308 306 304 290 273 272 267 271 273 271 267 259 251 246
97 83 56 56 57 56 57 54 60 56 49 40 36 39 44 37 28 20 16 4 4 358 353 349 340 332 326 318 310 304 304 302 298 285 279 278 280 284 282 277 269 259 252
102 85 60 59 58 59 56 49 56 54 55 49 44 39 42 41 27 19 8 4 358 356 351 340 336 330 326 322 318 310 302 301 300 292 286 291 291 289 287 284 280 274 268
114 96 61 62 62 65 64 55 53 51 55 54 45 37 40 42 34 24 12 6 360 352 343 334 327 317 311 316 314 311 302 301 298 297 293 298 304 305 301 295 290 287 285
130 106 74 87 68 64 66 59 57 55 63 55 44 41 40 40 39 32 20 4 355 351 348 346 342 333 328 328 322 315 309 308 311 313 310 306 306 310 311 309 308 306 305
129 106 73 70 72 66 68 62 60 62 65 56 48 43 37 37 41 38 24 3 359 2 359 345 347 337 333 329 318 315 318 321 329 338 349 343 333 326 323 332 335 336 334
135 120 96 75 73 61 59 64 63 65 64 58 51 43 36 34 37 38 27 8 7 9 3 350 349 337 325 328 318 317 329 338 338 4 16 18 19 14 2 357 1 356 349
136 121 109 83 58 57 51 50 48 51 45 50 49 43 38 34 35 38 30 16 15 12 1 353 339 337 316 319 315 322 326 335 353 16 11 26 28 23 16 13 9 357 357
130 122 118 94 46 60 59 61 51 26 10 27 40 47 41 35 33 39 28 19 19 16 0 350 343 341 342 343 346 336 331 346 26 28 23 28 29 29 27 26 25 19 8
157 164 166 154 132 89 139 183 187 187 216 54 28 41 42 37 30 33 28 18 16 14 12 7 4 349 344 3 9 350 335 334 354 13 24 33 26 32 31 32 33 31 25
184 193 193 190 185 213 197 113 78 62 31 15 2 359 18 34 33 34 29 27 19 22 6 355 4 10 342 332 6 32 13 294 316 336 20 31 25 26 19 33 40 36 32
205 197 192 192 196 224 189 161 161 175 210 232 251 307 348 17 22 25 28 27 24 18 8 355 15 3 358 338 336 356 336 276 309 316 337 16 22 27 25 27 33 35 32
198 192 197 191 203 217 198 192 183 196 211 227 239 308 331 348 5 15 23 24 23 15 10 16 13 18 22 357 339 338 350 3 9 278 301 331 357 10 19 23 33 34 30
192 194 196 193 215 218 208 205 201 209 214 219 237 244 267 288 328 350 15 24 16 10 5 9 18 32 32 34 19 18 21 358 338 316 281 304 317 336 10 26 35 34 28
Height
1535 1537 1539 1540 1541 1542 1543 1544 1545 1545 1546 1546 1546 1546 1546 1546 1546 1546 1545 1545 1545 1545 1545 1545 1545 1544 1544 1544 1544 1544 1544 1544 1543 1543 1543 1542 1542 1542 1542 1541 1541 1541 1541
1534 1536 1538 1540 1541 1542 1543 1544 1545 1545 1545 1546 1546 1546 1546 1546 1546 1546 1545 1545 1545 1545 1545 1545 1545 1544 1544 1544 1544 1544 1544 1544 1544 1543 1543 1543 1542 1542 1542 1542 1542 1541 1541
1534 1536 1538 1539 1541 1542 1543 1544 1544 1545 1545 1545 1546 1546 1546 1546 1546 1545 1545 1545 1545 1545 1545 1544 1544 1544 1544 1544 1544 1544 1544 1544 1543 1543 1543 1543 1542 1542 1542 1542 1542 1541 1541
1534 1535 1537 1539 1540 1541 1542 1543 1544 1544 1545 1545 1545 1545 1545 1545 1545 1545 1545 1545 1544 1544 1544 1544 1544 1544 1544 1544 1544 1544 1543 1543 1543 1543 1543 1542 1542 1542 1542 1542 1541 1541 1541
1534 1535 1537 1539 1540 1541 1542 1543 1543 1544 1544 1545 1545 1545 1545 1545 1545 1544 1544 1544 1544 1544 1543 1543 1543 1543 1543 1543 1543 1543 1543 1543 1543 1542 1542 1542 1542 1541 1541 1541 1541 1541 1541
1534 1535 1537 1538 1540 1541 1541 1542 1543 1543 1544 1544 1544 1544 1544 1544 1544 1544 1543 1543 1543 1543 1543 1542 1542 1542 1542 1542 1542 1542 1542 1542 1542 1541 1541 1541 1541 1541 1541 1541 1540 1540 1540
1534 1535 1537 1538 1539 1540 1541 1541 1542 1543 1543 1543 1543 1543 1543 1543 1543 1543 1542 1542 1542 1542 1541 1541 1541 1541 1541 1541 1541 1540 1540 1540 1540 1540 1540 1540 1540 1540 1540 1540 1540 1539 1539
1534 1535 1537 1538 1539 1540 1540 1541 1541 1542 1542 1542 1542 1542 1542 1542 1542 1541 1541 1541 1540 1540 1540 1540 1539 1539 1539 1539 1539 1538 1538 1538 1538 1538 1538 1538 1539 1539 1538 1538 1538 1538 1538
1534 1535 1536 1537 1538 1539 1540 1540 1540 1541 1541 1541 1541 1541 1541 1541 1540 1540 1540 1539 1539 1539 1538 1538 1538 1537 1537 1537 1537 1536 1536 1536 1536 1536 1536 1536 1537 1537 1537 1537 1537 1537 1537
1533 1535 1536 1537 1538 1538 1539 1539 1539 1540 1540 1540 1540 1540 1540 1540 1539 1539 1538 1538 1537 1537 1537 1536 1536 1535 1535 1535 1534 1534 1534 1534 1534 1534 1534 1534 1534 1535 1535 1535 1535 1535 1535
1533 1534 1535 1536 1537 1537 1538 1538 1539 1539 1539 1539 1539 1539 1539 1538 1538 1537 1537 1536 1536 1535 1535 1534 1534 1533 1533 1533 1532 1532 1532 1531 1532 1532 1532 1532 1532 1532 1532 1532 1532 1532 1532
1532 1534 1535 1535 1536 1537 1537 1537 1538 1538 1538 1538 1538 1538 1537 1537 1536 1536 1535 1535 1534 1534 1533 1533 1532 1531 1531 1530 1530 1530 1529 1529 1529 1529 1529 1529 1529 1530 1530 1530 1530 1530 1530
1532 1533 1534 1535 1535 1536 1536 1536 1537 1537 1537 1537 1536 1536 1536 1536 1535 1535 1534 1533 1533 1532 1531 1530 1530 1529 1529 1528 1527 1527 1527 1526 1526 1526 1526 1526 1527 1527 1527 1527 1527 1527 1527
1532 1532 1533 1534 1535 1535 1535 1535 1536 1536 1536 1535 1535 1535 1534 1534 1533 1533 1532 1532 1531 1530 1529 1528 1528 1527 1526 1526 1525 1524 1524 1524 1523 1523 1523 1523 1523 1523 1523 1523 1523 1523 1524
1532 1532 1533 1533 1534 1534 1534 1534 1534 1534 1534 1534 1533 1533 1533 1532 1532 1531 1530 1529 1529 1528 1527 1526 1526 1525 1524 1523 1523 1522 1521 1521 1520 1520 1520 1520 1520 1520 1520 1520 1520 1520 1520
1531 1531 1532 1532 1533 1533 1533 1533 1533 1533 1533 1532 1531 1531 1531 1531 1530 1529 1528 1528 1527 1526 1525 1524 1523 1523 1522 1521 1520 1519 1519 1518 1518 1517 1517 1517 1517 1517 1517 1516 1516 1516 1516
1531 1531 1531 1532 1532 1532 1532 1532 1532 1532 1532 1531 1530 1530 1529 1529 1528 1527 1527 1526 1525 1524 1523 1522 1521 1520 1519 1519 1518 1517 1516 1516 1515 1515 1515 1514 1514 1514 1513 1513 1513 1513 1513
1530 1530 1530 1531 1531 1531 1531 1531 1531 1531 1530 1530 1529 1528 1528 1527 1527 1526 1525 1524 1523 1522 1521 1520 1519 1518 1517 1516 1515 1514 1514 1513 1513 1512 1512 1511 1511 1510 1510 1510 1509 1509 1509
1529 1530 1530 1530 1530 1529 1530 1530 1530 1529 1529 1528 1528 1527 1526 1526 1525 1524 1523 1522 1521 1521 1520 1518 1517 1516 1515 1514 1513 1512 1511 1511 1510 1510 1509 1508 1508 1507 1507 1507 1506 1506 1505
1529 1529 1529 1529 1528 1528 1528 1528 1528 1528 1528 1527 1526 1526 1525 1524 1524 1523 1522 1521 1520 1519 1518 1517 1515 1514 1513 1512 1511 1510 1509 1509 1508 1507 1507 1506 1505 1505 1504 1503 1503 1502 1502
1527 1528 1528 1528 1527 1527 1527 1527 1527 1526 1526 1526 1525 1524 1524 1523 1522 1521 1520 1519 1518 1517 1516 1515 1513 1512 1511 1510 1509 1508 1507 1506 1506 1505 1505 1504 1503 1502 1501 1500 1500 1499 1498
1526 1526 1527 1526 1526 1526 1526 1525 1525 1525 1524 1524 1524 1523 1522 1521 1521 1520 1519 1517 1516 1515 1514 1513 1512 1510 1509 1508 1507 1506 1505 1505 1504 1503 1503 1502 1501 1500 1499 1498 1497 1496 1495
1524 1525 1525 1525 1525 1524 1524 1524 1523 1523 1523 1522 1522 1521 1521 1520 1519 1518 1517 1516 1514 1513 1512 1511 1510 1509 1508 1507 1506 1506 1505 1503 1502 1502 1501 1500 1499 1497 1496 1495 1494 1493 1492
1523 1523 1523 1523 1523 1523 1523 1522 1521 1521 1521 1521 1520 1519 1519 1518 1517 1516 1515 1514 1513 1511 1510 1509 1508 1507 1506 1505 1504 1504 1504 1502 1502 1500 1499 1498 1497 1495 1494 1493 1492 1491 1489
1521 1522 1522 1521 1521 1521 1521 1520 1519 1519 1519 1518 1518 1517 1517 1516 1515 1514 1513 1512 1511 1510 1508 1507 1506 1505 1504 1503 1502 1502 1501 1500 1499 1499 1497 1495 1494 1493 1492 1491 1489 1488 1487
1519 1520 1520 1519 1519 1519 1519 1518 1517 1516 1516 1516 1515 1515 1514 1514 1513 1512 1511 1510 1509 1508 1507 1506 1504 1503 1502 1501 1500 1499 1499 1498 1497 1496 1495 1493 1491 1491 1489 1488 1487 1485 1484